Temperature
19 21 21 22 22 22 20 20 20 20 20 20 19 19 20 21 20 20 20 20 20 20 20 20 20 19 19 19 19 18 18 18 18 18 17 17 17 17 17 16 16 16 16 16
19 21 21 21 22 21 21 21 21 20 20 19 19 20 20 20 20 20 20 20 20 20 20 20 20 20 20 20 19 19 19 18 18 18 18 17 17 17 17 16 16 16 16 16
18 19 20 19 20 20 20 20 20 20 19 19 18 18 19 19 19 19 20 21 21 21 21 20 20 20 20 20 20 19 19 19 18 18 18 18 17 17 17 16 16 16 16 16
16 18 18 19 19 20 20 19 19 19 19 19 18 19 19 20 20 20 20 20 21 21 21 21 21 20 20 20 20 19 19 19 18 18 18 18 17 17 17 17 16 16 16 16
16 17 18 19 19 19 18 18 17 17 18 18 18 18 18 19 19 20 20 20 21 21 21 21 21 21 20 20 20 19 19 19 18 18 18 18 17 17 17 17 16 16 16 16
16 17 17 18 19 19 19 17 17 17 17 17 17 17 16 17 18 19 19 20 20 20 20 20 20 20 20 20 19 19 19 19 19 18 18 18 17 17 17 16 16 16 16 16
15 16 17 17 18 19 18 17 16 16 16 16 15 16 16 17 18 18 19 19 19 19 19 19 19 20 19 19 19 19 19 18 18 18 18 17 17 17 17 16 16 15 15 15
15 15 16 16 17 16 16 15 15 15 16 16 16 16 16 17 17 17 18 18 18 18 18 18 19 19 18 18 18 18 18 18 18 17 17 17 17 16 16 16 16 15 15 15
14 14 14 15 15 16 15 15 15 15 16 16 15 15 15 16 16 16 17 17 17 17 17 17 17 18 17 17 17 17 17 17 17 17 16 16 16 16 16 15 15 15 14 14
13 14 14 15 15 15 15 15 15 16 16 16 15 15 15 15 15 16 16 16 16 16 16 16 16 16 16 16 16 16 16 16 16 16 16 15 15 15 15 15 14 14 14 14
13 14 14 14 15 15 15 15 15 15 15 15 15 15 15 15 15 15 16 16 16 16 15 15 15 15 15 15 15 15 15 15 15 15 15 15 15 14 14 14 14 14 14 14
13 14 13 13 14 15 15 14 15 14 14 14 15 14 15 15 15 15 15 15 15 15 14 14 14 14 14 14 15 14 14 14 14 14 14 14 14 13 13 13 13 13 13 13
14 14 14 14 14 14 14 14 14 14 14 14 14 14 14 14 14 14 14 14 14 14 14 14 14 14 14 14 14 14 14 14 14 13 13 13 13 13 13 13 13 12 12 12
14 14 13 14 14 14 14 14 14 14 14 14 13 13 13 13 14 13 13 13 13 13 13 13 13 13 13 13 13 13 13 13 13 13 13 13 12 12 12 12 12 12 12 12
14 14 14 14 14 14 14 14 14 13 13 13 13 13 13 13 13 13 13 13 13 13 13 13 13 12 12 13 13 12 12 12 12 12 12 12 12 12 12 12 12 11 11 11
14 14 14 13 13 13 13 13 13 13 13 13 13 13 13 13 13 13 13 13 13 12 12 12 12 12 12 12 12 12 12 12 12 12 11 11 11 11 11 11 11 11 11 10
13 13 13 13 13 13 13 13 13 13 13 13 13 13 13 13 12 12 12 12 12 12 12 12 12 12 12 12 12 11 11 11 11 11 11 11 11 11 11 10 10 10 10 10
14 13 13 13 13 13 13 13 13 13 13 12 12 12 12 12 12 12 12 12 12 12 11 11 11 11 11 11 11 11 11 11 11 10 10 10 10 10 10 10 10 9 9 9
13 13 13 13 13 13 13 12 12 12 12 12 12 12 12 12 12 11 11 11 11 11 11 11 11 11 11 10 10 10 10 10 10 10 10 10 9 9 9 9 9 9 9 8
13 13 13 12 12 12 12 12 12 12 12 12 12 11 11 11 11 11 11 11 11 10 10 10 10 10 10 10 10 10 9 9 9 9 9 9 9 8 8 8 8 8 8 8
12 12 12 12 12 12 12 12 12 12 12 12 11 11 11 11 11 11 11 10 10 10 10 10 10 10 9 9 9 9 9 9 8 8 8 8 8 7 7 7 7 7 7 7
12 12 12 12 12 12 12 12 11 11 11 11 11 11 11 11 10 10 10 10 10 9 9 9 9 9 9 8 8 8 8 8 8 7 7 7 7 7 6 6 6 6 6 6
11 11 11 11 11 11 11 11 11 11 11 11 11 11 10 10 10 10 10 9 9 9 9 9 8 8 8 8 8 7 7 7 7 7 6 6 6 6 6 5 5 5 5 5
11 11 11 11 11 11 11 11 11 11 10 10 10 10 10 10 9 9 9 9 8 8 8 8 7 7 7 7 7 7 6 6 6 6 5 5 5 5 5 5 4 4 4 4
11 11 11 11 11 11 10 10 10 10 10 10 10 9 9 9 9 8 8 8 8 7 7 7 7 6 6 6 6 6 5 5 5 5 5 4 4 4 4 4 4 4 4 4
10 10 10 10 10 10 10 10 10 10 9 9 9 9 9 8 8 8 7 7 7 7 6 6 6 5 5 5 5 5 4 4 4 4 4 4 4 4 4 4 4 3 3 3
10 10 10 10 10 10 9 9 9 9 9 9 8 8 8 8 7 7 7 6 6 6 5 5 5 4 4 4 4 4 4 3 3 3 3 3 3 3 3 3 3 3 3 3
Wind_Speed
4 4 2 2 3 2 3 5 6 6 6 8 8 7 6 5 6 7 9 10 13 13 13 14 15 15 16 15 15 15 14 13 13 12 11 10 10 10 9 10 10 9 8 8
4 4 4 4 3 3 4 3 3 3 4 5 5 3 4 5 6 7 7 10 12 14 14 15 16 16 16 16 16 15 15 14 13 11 11 11 11 11 10 9 9 9 9 9
3 4 4 4 3 1 2 1 3 3 4 2 2 3 6 6 7 7 5 7 10 13 14 15 16 16 16 16 14 14 14 14 13 13 12 12 13 11 12 11 10 10 10 10
1 2 4 6 2 1 2 2 2 1 1 3 5 4 2 2 4 5 5 6 9 10 12 12 12 13 14 13 14 14 14 13 13 13 13 12 11 12 12 10 10 10 10 10
3 3 4 4 1 1 2 1 3 3 3 3 5 5 3 2 1 3 5 5 5 7 8 9 9 11 11 11 11 12 12 12 13 13 13 12 12 11 9 8 8 8 8 9
3 3 4 5 4 3 2 0 2 5 5 3 4 3 1 2 4 3 2 3 4 5 6 6 7 9 11 11 11 11 11 11 10 11 11 11 11 10 7 8 9 9 8 9
3 3 4 4 5 3 2 3 1 2 4 4 3 2 1 3 5 6 7 5 7 8 7 4 5 8 9 8 8 8 8 7 7 8 10 10 9 8 7 8 8 8 8 7
2 3 4 6 4 1 3 2 2 1 3 6 6 6 5 5 6 7 8 9 9 9 8 6 5 8 8 5 4 4 5 6 6 6 7 6 7 7 7 7 7 7 6 6
2 3 3 3 1 1 1 2 2 2 4 8 8 7 6 6 7 8 8 9 9 10 9 8 7 7 7 3 4 6 6 5 4 4 4 4 5 5 4 4 5 5 5 5
1 2 2 4 4 2 3 3 3 4 6 9 9 7 7 7 7 8 8 8 9 11 11 9 7 7 6 4 5 7 6 5 4 4 3 3 3 3 4 4 4 4 5 5
1 1 2 4 2 2 5 7 8 7 8 10 11 8 8 8 8 8 8 8 9 10 10 9 8 8 8 7 7 7 5 4 4 3 3 2 2 2 3 4 5 6 6 5
3 4 3 1 1 5 8 7 8 11 12 11 11 11 10 9 8 8 9 8 9 10 10 9 8 8 7 7 7 6 6 5 3 3 2 2 2 2 2 1 2 4 4 4
2 3 5 5 6 8 9 10 11 12 13 12 10 10 10 9 8 9 9 9 9 8 8 7 8 8 7 6 7 7 5 3 3 2 2 2 2 2 1 3 4 2 1 0
5 7 7 6 7 8 11 12 12 12 12 11 10 10 10 10 10 10 9 8 8 8 8 8 9 8 6 6 7 6 5 5 4 2 2 2 2 1 1 1 1 2 2 1
6 7 8 8 10 10 10 11 13 12 11 10 9 10 10 10 9 8 7 8 9 9 8 8 9 7 6 6 7 6 5 3 3 3 2 2 2 1 1 1 0 0 1 2
8 9 10 11 11 10 10 11 11 9 9 9 9 8 8 9 8 8 7 8 8 7 6 7 6 5 5 6 6 5 4 6 5 3 3 3 2 2 2 2 1 1 1 2
10 8 10 10 10 9 9 9 8 8 8 8 7 7 8 9 8 7 6 6 6 6 5 5 4 4 5 6 5 4 4 4 6 4 3 2 2 2 2 1 1 1 1 1
9 9 9 9 9 9 8 8 8 8 7 7 8 8 8 8 6 5 4 5 6 7 5 4 4 5 6 6 4 3 3 3 3 3 3 3 2 2 2 2 2 1 2 3
12 11 11 10 9 9 8 8 7 7 6 7 8 7 6 6 5 4 5 7 6 5 4 4 6 6 6 6 6 4 4 4 4 4 4 5 4 4 3 3 3 2 2 2
12 11 11 10 9 9 8 7 7 6 5 6 7 7 6 4 4 4 5 5 2 1 1 3 5 5 5 6 6 4 4 4 4 4 4 4 4 4 4 3 3 3 3 3
10 11 10 9 8 7 6 6 6 6 5 6 6 5 4 3 4 4 5 3 3 3 4 5 4 3 4 4 5 4 4 4 4 4 4 4 4 4 4 4 4 4 4 4
8 9 9 8 7 6 5 5 5 5 5 5 5 5 5 5 5 5 4 1 1 4 4 3 2 4 5 6 4 4 4 4 3 3 3 3 3 3 4 4 4 4 4 4
7 7 7 6 6 5 5 5 5 5 5 5 5 4 4 3 3 3 2 2 1 5 4 4 5 7 7 5 4 4 4 4 3 3 3 3 3 3 3 4 4 4 4 5
6 6 5 5 6 6 5 3 3 4 4 4 4 5 5 4 3 3 1 2 4 6 4 5 9 9 8 4 4 4 4 3 3 3 3 3 3 3 4 4 4 4 5 6
5 5 5 6 5 4 3 4 5 5 5 5 5 5 4 3 3 2 3 4 6 5 4 5 8 8 6 4 4 4 4 4 4 4 4 3 4 4 4 4 4 5 5 5
4 4 3 3 3 2 3 4 3 3 3 4 4 4 4 4 5 4 4 5 7 7 5 4 5 5 5 5 4 4 4 4 5 4 5 4 5 5 4 5 6 5 5 5
5 4 4 5 4 4 3 3 3 3 3 3 3 3 4 4 5 5 6 5 5 5 4 4 5 4 4 4 4 5 5 4 4 4 5 4 4 4 5 6 5 5 5 5
Wind_Direction
234 251 261 251 244 214 200 188 189 219 208 223 213 211 210 194 173 171 179 183 185 187 188 186 186 187 186 188 187 187 186 189 192 191 186 182 181 182 181 183 187 186 187 194
337 332 331 304 288 238 243 224 211 201 236 241 221 195 188 192 174 172 185 188 189 189 189 188 189 189 187 187 187 184 187 192 191 187 186 189 189 188 186 190 190 188 195 200
294 321 354 300 273 223 234 264 175 205 238 200 172 192 196 199 188 184 191 195 188 190 194 193 192 189 189 189 183 183 189 192 191 189 191 196 196 191 194 196 194 196 202 205
187 33 246 245 251 124 137 15 37 55 214 168 168 165 149 177 172 191 203 200 197 195 195 196 192 190 186 181 180 184 188 191 192 193 197 198 194 195 199 199 200 202 207 208
157 195 263 290 310 185 154 360 17 72 75 81 95 88 30 12 100 208 208 186 186 185 182 182 182 179 169 172 177 182 188 191 191 192 194 194 197 199 199 196 201 205 206 209
155 170 221 255 294 304 114 248 20 90 92 84 71 110 279 10 50 37 45 121 133 137 134 151 167 157 156 168 170 180 186 186 185 185 186 191 195 196 195 198 206 207 210 211
176 201 242 278 316 14 136 236 298 131 125 103 84 145 169 64 62 50 49 70 98 105 108 126 140 135 145 158 179 191 180 171 172 178 186 191 192 193 195 198 202 207 214 217
164 194 250 331 0 129 206 210 157 116 105 104 96 88 80 79 77 68 59 62 78 88 84 76 100 124 129 150 176 152 143 153 170 181 188 189 184 191 192 192 198 205 213 222
193 217 287 332 320 307 143 137 120 104 116 107 90 84 82 78 77 74 70 68 73 85 84 74 77 102 115 132 122 114 118 132 144 143 147 148 162 176 177 183 194 203 208 220
239 279 329 355 7 36 98 100 91 106 111 104 101 96 85 82 82 82 76 73 74 80 80 71 67 74 82 80 97 106 113 117 120 121 123 130 145 156 166 181 195 203 208 218
228 241 35 6 12 70 85 84 82 86 88 98 100 97 96 91 81 79 81 76 77 82 79 71 66 65 61 62 74 81 83 86 93 106 123 130 136 158 179 206 204 203 212 208
218 210 160 211 115 103 102 92 91 92 84 76 84 91 89 83 77 78 78 78 78 77 77 72 70 66 58 61 74 79 75 68 69 75 87 97 96 57 7 278 251 219 216 210
156 127 118 109 96 98 98 96 94 92 91 87 81 83 86 84 77 75 74 74 77 77 75 71 67 60 49 55 68 73 73 66 60 59 65 71 81 94 4 348 17 24 13 205
126 113 98 94 99 96 98 97 91 86 84 87 86 86 83 79 77 77 76 76 78 75 69 66 61 48 36 53 63 63 62 57 60 63 64 71 87 117 160 206 314 329 329 283
85 101 115 108 98 97 98 96 90 83 81 78 78 81 83 81 78 75 73 75 75 69 61 57 55 36 24 46 58 54 52 46 48 54 53 58 61 67 68 68 77 289 329 331
95 92 98 98 99 98 95 94 93 90 88 86 82 78 82 84 80 75 72 75 76 70 65 64 51 25 27 42 46 40 31 35 49 52 50 48 47 56 53 51 43 22 340 305
109 109 107 107 104 100 95 96 96 95 91 89 87 83 81 81 75 70 63 63 72 71 72 73 50 30 37 39 40 28 20 22 33 41 40 40 42 44 42 47 25 5 322 317
106 110 112 115 112 103 95 91 90 89 90 91 88 82 81 83 82 73 62 61 59 49 38 40 47 46 34 26 27 21 27 28 28 29 29 31 27 22 19 21 10 3 339 345
98 98 94 94 97 99 97 93 89 88 87 85 84 81 83 87 88 81 70 64 61 50 8 15 46 49 26 13 26 32 37 38 37 33 34 32 30 23 20 20 17 12 359 350
93 95 94 92 90 92 91 90 89 84 84 89 87 81 74 68 74 78 72 62 52 58 16 51 54 40 21 12 29 37 38 37 38 34 32 32 25 14 8 5 1 353 346 342
89 89 89 89 87 86 87 87 90 90 84 86 91 93 87 67 68 83 87 65 354 13 54 59 49 21 11 15 27 37 38 37 34 29 24 20 15 9 6 5 1 357 353 348
81 80 80 79 78 73 69 73 83 90 84 77 78 82 80 68 64 64 67 98 9 41 53 40 19 17 25 32 36 36 33 32 33 35 30 20 14 8 3 0 356 357 351 342
86 84 80 77 81 77 64 66 76 86 86 81 78 79 87 82 85 89 51 337 24 52 49 28 22 30 36 39 41 36 29 29 28 21 13 7 4 2 356 352 348 348 344 338
81 76 74 75 77 76 70 60 66 73 74 70 70 82 92 81 49 36 84 58 59 65 53 38 43 43 44 45 43 36 27 21 15 12 13 12 9 1 357 353 348 343 341 339
79 70 71 73 71 68 63 62 63 62 63 59 53 55 65 83 86 62 55 52 60 65 49 40 41 41 43 43 37 31 27 29 29 21 16 7 359 357 357 354 350 347 347 346
80 76 74 73 72 71 74 77 72 65 74 66 45 41 49 53 60 58 55 51 51 50 44 33 30 34 39 40 35 29 26 22 23 21 17 12 4 2 359 359 356 351 345 343
66 62 58 50 42 49 65 74 78 70 78 90 75 51 53 56 59 57 54 50 47 43 37 34 35 36 37 36 36 32 27 22 18 15 9 4 2 357 354 354 351 346 346 345
Height
1462 1457 1455 1455 1455 1456 1461 1465 1471 1467 1464 1459 1455 1454 1452 1453 1455 1457 1459 1463 1466 1469 1473 1476 1480 1483 1487 1491 1495 1499 1502 1505 1508 1511 1514 1517 1520 1522 1524 1526 1528 1530 1532 1533
1464 1456 1455 1456 1452 1453 1455 1456 1458 1458 1459 1451 1450 1450 1451 1452 1453 1454 1456 1459 1463 1466 1469 1472 1476 1479 1483 1486 1490 1494 1497 1500 1504 1507 1510 1513 1516 1518 1521 1523 1525 1526 1528 1529
1472 1463 1459 1465 1456 1453 1455 1452 1453 1459 1456 1450 1451 1450 1450 1450 1451 1452 1454 1456 1459 1461 1464 1467 1470 1474 1478 1482 1486 1490 1493 1497 1500 1503 1506 1509 1511 1514 1516 1518 1520 1522 1523 1525
1473 1471 1478 1462 1449 1448 1451 1452 1451 1450 1450 1448 1447 1449 1450 1450 1451 1452 1453 1454 1456 1458 1461 1464 1467 1471 1475 1479 1482 1486 1489 1493 1496 1499 1501 1504 1507 1509 1511 1513 1515 1517 1518 1520
1474 1476 1470 1457 1450 1450 1453 1456 1452 1450 1449 1448 1447 1449 1451 1451 1451 1451 1452 1453 1453 1455 1457 1461 1464 1468 1472 1475 1479 1482 1485 1488 1491 1494 1497 1498 1501 1503 1506 1508 1510 1511 1513 1515
1470 1473 1475 1461 1449 1445 1449 1457 1451 1448 1449 1448 1448 1455 1455 1452 1450 1450 1450 1450 1451 1453 1455 1458 1461 1465 1468 1471 1475 1477 1480 1483 1487 1490 1492 1494 1496 1499 1501 1503 1505 1507 1508 1510
1468 1470 1464 1453 1447 1445 1459 1459 1451 1449 1448 1448 1451 1453 1454 1452 1452 1451 1450 1450 1451 1452 1454 1457 1460 1463 1466 1469 1471 1474 1478 1481 1484 1486 1488 1490 1492 1494 1496 1498 1500 1501 1502 1504
1468 1470 1466 1451 1447 1451 1453 1450 1449 1448 1448 1448 1449 1451 1452 1452 1452 1451 1451 1451 1451 1452 1454 1456 1459 1461 1464 1466 1469 1473 1475 1478 1481 1483 1485 1486 1488 1490 1492 1493 1494 1495 1497 1498
1464 1465 1457 1452 1451 1450 1449 1448 1448 1448 1449 1448 1449 1451 1453 1454 1454 1454 1455 1454 1454 1454 1456 1458 1460 1462 1464 1467 1469 1471 1473 1475 1478 1480 1482 1483 1484 1486 1488 1489 1490 1491 1492 1492
1461 1458 1455 1452 1451 1450 1448 1448 1448 1448 1448 1448 1450 1453 1454 1455 1456 1457 1457 1457 1457 1457 1458 1460 1462 1464 1465 1467 1469 1470 1472 1474 1476 1478 1478 1480 1481 1483 1484 1485 1486 1486 1487 1488
1460 1457 1455 1454 1453 1452 1451 1451 1450 1451 1451 1451 1452 1454 1455 1457 1458 1458 1459 1459 1460 1460 1461 1462 1464 1466 1468 1469 1469 1470 1472 1473 1474 1475 1477 1478 1479 1480 1481 1482 1483 1483 1483 1484
1458 1455 1456 1456 1454 1453 1453 1454 1454 1454 1454 1455 1455 1456 1458 1460 1461 1461 1462 1463 1463 1464 1464 1466 1467 1468 1470 1471 1471 1472 1472 1473 1474 1475 1476 1477 1477 1478 1478 1480 1480 1480 1480 1480
1453 1453 1454 1456 1456 1456 1456 1457 1458 1458 1459 1460 1461 1462 1463 1463 1465 1465 1466 1467 1467 1468 1469 1470 1470 1470 1471 1472 1473 1473 1473 1474 1474 1475 1475 1475 1475 1475 1476 1477 1477 1477 1476 1476
1454 1455 1457 1458 1459 1459 1460 1461 1462 1463 1464 1465 1467 1467 1467 1467 1469 1470 1470 1472 1472 1473 1473 1473 1473 1473 1474 1475 1475 1475 1475 1475 1475 1474 1474 1474 1474 1474 1474 1474 1474 1474 1473 1473
1456 1457 1458 1460 1462 1463 1464 1464 1465 1467 1469 1470 1471 1471 1471 1471 1473 1474 1475 1476 1476 1476 1477 1477 1476 1477 1477 1477 1476 1476 1476 1475 1474 1474 1474 1473 1473 1473 1472 1472 1471 1471 1470 1470
1459 1460 1462 1463 1465 1467 1467 1468 1469 1471 1473 1474 1474 1475 1475 1476 1477 1478 1478 1479 1479 1479 1479 1479 1479 1479 1479 1479 1478 1477 1477 1476 1475 1474 1474 1473 1473 1472 1471 1470 1469 1469 1468 1467
1460 1463 1464 1466 1468 1470 1471 1472 1474 1475 1476 1477 1478 1479 1479 1480 1480 1481 1481 1481 1481 1481 1482 1481 1481 1481 1480 1479 1479 1478 1477 1475 1474 1474 1473 1472 1472 1471 1469 1468 1467 1466 1465 1464
1463 1465 1467 1469 1471 1473 1475 1476 1478 1479 1480 1481 1482 1482 1483 1483 1483 1484 1484 1484 1483 1483 1483 1483 1483 1482 1481 1480 1479 1478 1476 1475 1473 1472 1471 1471 1470 1468 1467 1466 1465 1464 1463 1461
1467 1469 1471 1473 1475 1476 1478 1480 1481 1482 1483 1484 1484 1485 1485 1485 1486 1486 1485 1485 1485 1484 1485 1485 1484 1483 1482 1480 1479 1477 1475 1474 1472 1471 1470 1469 1468 1467 1465 1464 1463 1462 1460 1458
1472 1473 1475 1477 1479 1480 1481 1483 1484 1485 1486 1486 1486 1487 1487 1487 1487 1487 1487 1486 1486 1486 1486 1485 1484 1483 1481 1480 1478 1476 1474 1473 1471 1470 1469 1468 1466 1465 1463 1462 1460 1459 1457 1455
1476 1477 1479 1480 1482 1483 1484 1485 1486 1487 1488 1488 1488 1488 1488 1489 1488 1488 1487 1487 1488 1487 1486 1485 1484 1482 1480 1478 1476 1475 1473 1471 1470 1468 1467 1466 1464 1462 1461 1459 1457 1455 1453 1451
1480 1481 1482 1484 1485 1486 1487 1487 1488 1488 1489 1489 1489 1489 1489 1489 1489 1488 1488 1488 1488 1487 1485 1484 1482 1480 1479 1477 1475 1473 1472 1470 1469 1467 1465 1464 1462 1460 1458 1456 1454 1451 1449 1447
1483 1485 1486 1486 1487 1488 1489 1489 1490 1490 1490 1490 1490 1490 1490 1490 1489 1489 1489 1488 1487 1486 1484 1482 1481 1479 1477 1475 1474 1472 1470 1468 1467 1465 1463 1461 1459 1457 1455 1453 1451 1448 1446 1443
1486 1487 1488 1489 1489 1490 1490 1491 1491 1491 1491 1491 1491 1491 1491 1490 1490 1489 1488 1487 1486 1484 1482 1481 1479 1477 1475 1473 1472 1470 1468 1466 1464 1463 1461 1459 1457 1455 1452 1450 1448 1445 1443 1440
1488 1489 1490 1490 1491 1491 1492 1492 1492 1492 1492 1492 1491 1491 1491 1490 1489 1488 1487 1486 1484 1482 1481 1479 1477 1475 1473 1471 1470 1468 1466 1464 1462 1460 1458 1456 1454 1452 1450 1448 1445 1443 1440 1438
1490 1491 1491 1492 1492 1492 1492 1492 1492 1492 1492 1491 1491 1490 1490 1489 1488 1487 1486 1484 1483 1481 1479 1477 1475 1473 1471 1469 1468 1466 1464 1462 1460 1458 1456 1454 1452 1450 1448 1445 1443 1440 1438 1435
1491 1492 1492 1492 1492 1492 1492 1492 1492 1492 1491 1491 1490 1490 1489 1488 1487 1486 1484 1483 1481 1479 1477 1475 1474 1472 1470 1468 1466 1465 1463 1461 1459 1457 1455 1453 1451 1448 1446 1443 1441 1438 1435 1433